Location: Damada
(14.7329°N, 3.1761°W)
Time: 09:14:34
(UTC+00:00)

Cosmos 1656 Rocket - Pass Details

Date: 18 February 2020
Orbit: 794 x 848 km, 71.1° (Epoch: 09 April)

Event Time Altitude Azimuth Distance (km) Brightness Sun altitude
Rises 19:35:25 0° 197° (SSW) 3,286 7.1 -19.3°
Reaches altitude 10° 19:37:48 10° 198° (SSW) 2,360 6.3 -19.9°
Maximum altitude 19:43:12 83° 285° (WNW) 811 3.6 -21.2°
Enters shadow 19:48:09 13° 14° (NNE) 2,191 5.6 -22.4°
